Regional Weather Roundup
Issued by NWS Green Bay, WI

Home | Current Version | Previous Version | Graphics & Text | Print | Product List | Glossary Off
Versions: 1 2 3 4 5 6 7 8 9 10 11 12 13 14 15 16 17 18 19 20 21 22 23 24 25 26 27 28 29 30 31 32 33 34 35 36 37 38 39 40 41 42 43 44 45 46 47 48 49 50

000
ASUS43 KGRB 251900
RWRGRB

NORTH-CENTRAL AND NORTHEAST WISCONSIN REGIONAL WEATHER ROUNDUP
NATIONAL WEATHER SERVICE GREEN BAY WI
200 PM CDT MON JUL 25 2016

WIZ005-009-010>012-018-019-252000-
NORTH CENTRAL WISCONSIN

CITY           SKY/WX    TMP DP  RH WIND       PRES   REMARKS
IRONWOOD       MOSUNNY   75  59  57 NW13G20   29.99S
MANITOWISH WTR PTSUNNY   76  59  55 NW10G17   30.03S
ARBOR VITAE    NOT AVBL
EAGLE RIVER    NOT AVBL
LAND O LAKES   NOT AVBL
RHINELANDER    PTSUNNY   80  57  45 W13       30.04S
PHILLIPS       MOSUNNY   77  60  55 W7        30.03F
ANTIGO         NOT AVBL
TOMAHAWK       MOSUNNY   76  57  50 W8        30.04S
MERRILL        MOSUNNY   79  60  51 N10       30.03F
$$

WIZ013-073-252000-
NORTHEAST WISCONSIN

CITY           SKY/WX    TMP DP  RH WIND       PRES   REMARKS
IRON MOUNTAIN  SUNNY     82  56  40 NW10      29.96F
MARINETTE      SUNNY    N/A N/A N/A N8G16     29.95F
$$

WIZ017-030-035>037-045-252000-
CENTRAL WISCONSIN

CITY           SKY/WX    TMP DP  RH WIND       PRES   REMARKS
MEDFORD        NOT AVBL
WAUSAU         MOSUNNY   81  58  45 NW12G18   30.00F
MOSINEE        MOSUNNY   81  61  50 W9        30.04S
MARSHFIELD     MOSUNNY   81  61  50 NW13G21   30.04S
WISC RAPIDS    MOSUNNY   83  59  44 NW13      30.03F
STEVENS POINT  NOT AVBL
WAUPACA        NOT AVBL
SHAWANO        NOT AVBL
CLINTONVILLE   SUNNY     82  55  39 NW12G18   29.98F
WAUTOMA        SUNNY     83  61  47 NW16G23   30.00F
$$

WIZ038-039-048-051-252000-
FOX VALLEY

CITY           SKY/WX    TMP DP  RH WIND       PRES   REMARKS
NWS GREEN BAY  MOSUNNY   82  67  60 NW13G21   29.97F
APPLETON       PTSUNNY   82  61  47 W14       29.98F
OSHKOSH        MOSUNNY   83  63  50 NW12G20   29.99F
FOND DU LAC    MOSUNNY   84  63  49 NW9       29.99F
$$

WIZ022-050-052-252000-
EAST CENTRAL WISCONSIN

CITY           SKY/WX    TMP DP  RH WIND       PRES   REMARKS
EPHRAIM        FAIR      80  61  50 NW10      29.95R
WASHINGTON ISL NOT AVBL
STURGEON BAY   SUNNY     81  61  50 W12       29.96S
MANITOWOC      NOT AVBL
SHEBOYGAN      SUNNY     82  62  50 W14G20    29.99S
$$

LMZ563-521-522-541>543-252000-
LAKESHORE

STATION/POSITION TIME  TEMP    WIND        PRES    VSBY  WAVE
                       AIR SEA DIR/SP/G                  HT/PER
                 (UTC) (F)     (DEG/KT/KT) (MB)    (MI)  (FT/S)
SHEBOYGAN LKSHOR 1800   80     290/ 11/ 15 1015.2R
KEWAUNEE LKSHORE 1800   80     300/  8/ 13 1014.1S
ALGOMA MARINA    1813          300/  8/ 13   N/A
NORTHPORT PIER   1800   79     300/  8/ 12 1013.5S
N MID LAKE BUOY  1750   71 69  250/  8/ 10 1012.9R         1/ 3
SISTER BAY LKSHO 1806   80     320/  9/ 11   N/A
CHAMBERS ISLAND  1800   81     320/  2/  8 1013.9S
MENOMINEE LKSHOR 1800   79     290/  9/ 18 1013.1S
$$




USA.gov is the U.S. government's official web portal to all federal, state and local government web resources and services.